DW5572 Weather Reports


Display with metric or nautical units.
time (UTC)temp
F
wind
direction
speed
MPH
gust
MPH
rain 1hr
in
rain 24hr
in
rain mn
in
humidity
%
barometer
mb
20210917212716 65 254 4.0 9.0 0.00 0.00 0.00 84 1022.7
20210917212213 65 236 4.0 9.0 0.00 0.00 0.00 83 1022.8
20210917211715 65 261 4.0 9.0 0.00 0.00 0.00 83 1022.9
20210917211214 65 267 4.0 9.0 0.00 0.00 0.00 82 1022.9
20210917210715 66 248 3.0 9.0 0.00 0.00 0.00 82 1022.9
20210917210214 66 270 4.0 9.0 0.00 0.00 0.00 82 1023.1
20210917205709 66 258 4.0 9.0 0.00 0.00 0.00 81 1023.1
20210917195214 66 256 4.0 9.0 0.00 0.00 0.00 80 1023.3
20210917194716 66 256 4.0 9.0 0.00 0.00 0.00 80 1023.3
20210917194215 66 256 4.0 9.0 0.00 0.00 0.00 80 1023.5
20210917193715 66 269 4.0 9.0 0.00 0.00 0.00 80 1023.6
20210917193214 66 200 4.0 9.0 0.00 0.00 0.00 80 1023.7
20210917192715 65 277 4.0 9.0 0.00 0.00 0.00 81 1023.8
20210917192215 66 223 5.0 9.0 0.00 0.00 0.00 80 1023.7
20210917191714 66 232 6.0 9.0 0.00 0.00 0.00 78 1023.8
20210917191215 67 271 5.0 9.0 0.00 0.00 0.00 77 1023.7
20210917190715 67 265 5.0 9.0 0.00 0.00 0.00 77 1023.8
20210917190213 67 270 5.0 9.0 0.00 0.00 0.00 76 1023.8
20210917185712 67 278 6.0 9.0 0.00 0.00 0.00 77 1023.9
20210917185212 66 277 6.0 9.0 0.00 0.00 0.00 80 1023.8
20210917184713 65 277 6.0 9.0 0.00 0.00 0.00 81 1023.9
20210917184218 65 277 6.0 9.0 0.00 0.00 0.00 82 1023.8
20210917183715 65 273 6.0 9.0 0.00 0.00 0.00 82 1023.9
20210917183215 65 275 6.0 9.0 0.00 0.00 0.00 82 1024.0
20210917182715 65 273 6.0 9.0 0.00 0.00 0.00 83 1024.0
20210917182212 64 265 6.0 9.0 0.00 0.00 0.00 84 1024.1
20210917181715 65 272 6.0 9.0 0.00 0.00 0.00 83 1024.1
20210917181217 65 273 5.0 9.0 0.00 0.00 0.00 82 1024.3
20210917180715 66 272 5.0 9.0 0.00 0.00 0.00 77 1024.4
20210917180213 67 268 5.0 9.0 0.00 0.00 0.00 75 1024.5
20210917175715 67 278 4.0 9.0 0.00 0.00 0.00 74 1024.6
20210917175214 67 275 4.0 9.0 0.00 0.00 0.00 73 1024.6
20210917174713 67 275 4.0 9.0 0.00 0.00 0.00 72 1024.7
20210917174213 68 232 5.0 9.0 0.00 0.00 0.00 73 1024.8
20210917173716 68 241 5.0 9.0 0.00 0.00 0.00 72 1024.9
20210917173214 68 254 4.0 9.0 0.00 0.00 0.00 71 1024.9
20210917172715 68 277 3.0 9.0 0.00 0.00 0.00 73 1025.0
20210917172215 68 261 3.0 9.0 0.00 0.00 0.00 75 1025.1
20210917171714 67 324 3.0 9.0 0.00 0.00 0.00 77 1025.1
20210917171214 65 272 3.0 9.0 0.00 0.00 0.00 78 1025.1
20210917170715 65 163 4.0 9.0 0.00 0.00 0.00 79 1025.2
20210917170214 65 265 5.0 9.0 0.00 0.00 0.00 80 1025.3
20210917165716 65 259 5.0 9.0 0.00 0.00 0.00 81 1025.4
20210917165207 65 266 5.0 9.0 0.00 0.00 0.00 80 1025.5
20210917164715 65 279 7.0 9.0 0.00 0.00 0.00 79 1025.5
20210917164213 65 275 6.0 9.0 0.00 0.00 0.00 78 1025.5
20210917163715 65 267 6.0 9.0 0.00 0.00 0.00 78 1025.4
20210917163215 65 250 5.0 9.0 0.00 0.00 0.00 80 1025.5
20210917162713 64 258 5.0 9.0 0.00 0.00 0.00 79 1025.5
20210917162216 65 240 5.0 9.0 0.00 0.00 0.00 77 1025.6
20210917161714 64 267 5.0 9.0 0.00 0.00 0.00 76 1025.6
20210917161214 64 273 4.0 9.0 0.00 0.00 0.00 75 1025.7
20210917160715 64 267 2.0 9.0 0.00 0.00 0.00 73 1025.7
20210917160215 64 303 0.0 9.0 0.00 0.00 0.00 75 1025.6
20210917155715 64 347 0.0 9.0 0.00 0.00 0.00 76 1025.5
20210917155212 63 347 0.0 9.0 0.00 0.00 0.00 77 1025.6
20210917154715 63 347 0.0 9.0 0.00 0.00 0.00 80 1025.6
20210917154216 62 347 0.0 9.0 0.00 0.00 0.00 81 1025.6
20210917153713 62 347 0.0 9.0 0.00 0.00 0.00 83 1025.6
20210917153214 62 347 0.0 9.0 0.00 0.00 0.00 83 1025.7
20210917152716 62 347 0.0 9.0 0.00 0.00 0.00 84 1025.8
20210917152216 62 350 0.0 9.0 0.00 0.00 0.00 85 1025.8
20210917151715 62 350 0.0 9.0 0.00 0.00 0.00 85 1025.9
20210917151213 61 350 0.0 9.0 0.00 0.00 0.00 86 1025.9
20210917150715 61 350 0.0 9.0 0.00 0.00 0.00 87 1026.0
20210917150214 61 350 1.0 9.0 0.00 0.00 0.00 87 1026.1
20210917145710 61 350 2.0 9.0 0.00 0.00 0.00 87 1026.1
20210917145216 61 350 3.0 9.0 0.00 0.00 0.00 88 1026.2
20210917144715 60 346 3.0 9.0 0.00 0.00 0.00 88 1026.2
20210917144213 60 339 3.0 9.0 0.00 0.00 0.00 88 1026.3
20210917143716 60 9 4.0 9.0 0.00 0.00 0.00 88 1026.4
20210917143214 60 246 5.0 9.0 0.00 0.00 0.00 88 1026.4
20210917142716 60 109 5.0 9.0 0.00 0.00 0.00 88 1026.4
20210917142216 60 340 5.0 9.0 0.00 0.00 0.00 89 1026.6
20210917141715 60 277 5.0 9.0 0.00 0.00 0.00 89 1026.6
20210917141214 59 15 5.0 9.0 0.00 0.00 0.00 89 1026.7
20210917140716 59 18 5.0 9.0 0.00 0.00 0.00 89 1026.7
20210917140215 59 9 5.0 9.0 0.00 0.00 0.00 89 1026.8
20210917135714 59 9 5.0 9.0 0.00 0.00 0.00 89 1026.8
20210917135216 59 13 5.0 9.0 0.00 0.00 0.00 89 1026.9
20210917134713 59 9 5.0 9.0 0.00 0.00 0.00 89 1026.9
20210917134213 58 21 5.0 9.0 0.00 0.00 0.00 89 1027.0
20210917133716 58 234 5.0 9.0 0.00 0.00 0.00 89 1027.1
20210917133214 58 31 6.0 9.0 0.00 0.00 0.00 89 1027.1
20210917132715 58 29 6.0 9.0 0.00 0.00 0.00 89 1027.2
20210917132215 58 25 7.0 9.0 0.00 0.00 0.00 89 1027.2
20210917131715 58 22 7.0 9.0 0.00 0.00 0.00 89 1027.2
20210917131214 58 17 7.0 9.0 0.00 0.00 0.00 89 1027.3
20210917130715 58 9 6.0 9.0 0.00 0.00 0.00 89 1027.3
20210917130215 58 9 6.0 9.0 0.00 0.00 0.00 89 1027.3
20210917125715 58 15 5.0 9.0 0.00 0.00 0.00 89 1027.4
20210917125212 58 11 5.0 9.0 0.00 0.00 0.00 89 1027.4
20210917124713 58 19 5.0 9.0 0.00 0.00 0.00 90 1027.4
20210917124217 58 13 5.0 9.0 0.00 0.00 0.00 89 1027.3
20210917123715 58 24 5.0 9.0 0.00 0.00 0.00 89 1027.4
20210917123215 58 27 5.0 9.0 0.00 0.00 0.00 89 1027.5
20210917122712 57 21 5.0 9.0 0.00 0.00 0.00 89 1027.5
20210917122216 57 28 4.0 9.0 0.00 0.00 0.00 89 1027.4
20210917121715 57 28 4.0 9.0 0.00 0.00 0.00 90 1027.4
20210917121215 57 9 3.0 9.0 0.00 0.00 0.00 91 1027.5
20210917120715 57 29 3.0 9.0 0.00 0.00 0.00 91 1027.5
20210917120213 57 37 2.0 9.0 0.00 0.00 0.00 92 1027.5
20210917115715 57 80 2.0 9.0 0.00 0.00 0.00 93 1027.6
20210917115214 56 84 2.0 9.0 0.00 0.00 0.00 93 1027.6
20210917114715 56 92 2.0 9.0 0.00 0.00 0.00 93 1027.5
20210917114213 55 109 2.0 9.0 0.00 0.00 0.00 93 1027.5
20210917113715 55 113 2.0 9.0 0.00 0.00 0.00 94 1027.4
20210917113214 55 123 2.0 9.0 0.00 0.00 0.00 94 1027.4
20210917112715 55 123 2.0 9.0 0.00 0.00 0.00 94 1027.5
20210917112215 55 128 2.0 9.0 0.00 0.00 0.00 94 1027.5
20210917111713 54 125 2.0 9.0 0.00 0.00 0.00 94 1027.6
20210917111214 54 90 1.0 9.0 0.00 0.00 0.00 94 1027.6
20210917110715 54 69 0.0 9.0 0.00 0.00 0.00 94 1027.6
20210917110214 54 69 0.0 9.0 0.00 0.00 0.00 94 1027.5
20210917105716 54 69 0.0 9.0 0.00 0.00 0.00 94 1027.5
20210917105212 54 69 0.0 9.0 0.00 0.00 0.00 94 1027.6
20210917104716 54 69 0.0 9.0 0.00 0.00 0.00 94 1027.6
20210917104215 53 69 0.0 9.0 0.00 0.00 0.00 94 1027.6
20210917103715 53 69 0.0 9.0 0.00 0.00 0.00 93 1027.5
20210917103214 53 69 0.0 9.0 0.00 0.00 0.00 93 1027.5
20210917102713 54 69 0.0 9.0 0.00 0.00 0.00 94 1027.4
20210917102215 54 69 0.0 9.0 0.00 0.00 0.00 93 1027.3
20210917101716 54 65 1.0 9.0 0.00 0.00 0.00 93 1027.2
20210917101214 55 65 2.0 9.0 0.00 0.00 0.00 94 1027.0
20210917100715 55 63 3.0 9.0 0.00 0.00 0.00 94 1026.9
20210917100214 55 59 2.0 9.0 0.00 0.00 0.00 94 1026.8
20210917095715 55 78 1.0 9.0 0.00 0.00 0.00 94 1026.8
20210917095214 54 123 0.0 9.0 0.00 0.00 0.00 94 1026.6
20210917094715 54 123 0.0 9.0 0.00 0.00 0.00 94 1026.6
20210917094215 54 123 0.0 9.0 0.00 0.00 0.00 94 1026.5
20210917093715 54 123 0.0 9.0 0.00 0.00 0.00 94 1026.4
20210917093214 54 123 0.0 9.0 0.00 0.00 0.00 93 1026.3
20210917092707 54 123 0.0 9.0 0.00 0.00 0.00 93 1026.2
20210917092216 54 123 1.0 9.0 0.00 0.00 0.00 94 1026.2
20210917091713 54 123 1.0 9.0 0.00 0.00 0.00 93 1026.1
20210917091215 54 123 0.0 9.0 0.00 0.00 0.00 93 1026.1
20210917090715 54 123 1.0 9.0 0.00 0.00 0.00 93 1026.1
20210917090214 55 123 1.0 9.0 0.00 0.00 0.00 93 1026.0
20210917085712 55 123 1.0 9.0 0.00 0.00 0.00 93 1026.0
20210917085214 55 123 1.0 9.0 0.00 0.00 0.00 93 1026.0
20210917084715 55 123 2.0 9.0 0.00 0.00 0.00 93 1026.0
20210917084215 55 123 2.0 9.0 0.00 0.00 0.00 93 1026.0
20210917083715 55 109 2.0 9.0 0.00 0.00 0.00 93 1026.1
20210917083214 55 99 2.0 9.0 0.00 0.00 0.00 93 1026.1
20210917082716 55 90 2.0 9.0 0.00 0.00 0.00 93 1025.9
20210917082212 56 90 2.0 9.0 0.00 0.00 0.00 93 1025.9
20210917081713 56 81 2.0 9.0 0.00 0.00 0.00 93 1025.8
20210917081214 56 80 2.0 9.0 0.00 0.00 0.00 93 1025.8
20210917080715 56 74 1.0 9.0 0.00 0.00 0.00 93 1025.7
20210917080214 56 66 1.0 9.0 0.00 0.00 0.00 93 1025.6
20210917075712 56 65 3.0 9.0 0.00 0.00 0.00 93 1025.7
20210917075210 56 60 4.0 9.0 0.00 0.00 0.00 94 1025.6
20210917074715 56 49 3.0 9.0 0.00 0.00 0.00 94 1025.5
20210917074215 55 63 2.0 9.0 0.00 0.00 0.00 94 1025.5
20210917073715 55 89 2.0 9.0 0.00 0.00 0.00 94 1025.5
20210917073218 55 97 1.0 9.0 0.00 0.00 0.00 93 1025.5
20210917072715 55 110 0.0 9.0 0.00 0.00 0.00 93 1025.5
20210917072216 55 110 1.0 9.0 0.00 0.00 0.00 93 1025.5
20210917071713 55 110 2.0 9.0 0.00 0.00 0.00 93 1025.4
20210917071214 55 110 3.0 9.0 0.00 0.00 0.00 93 1025.4
20210917070715 56 110 3.0 9.0 0.00 0.00 0.00 93 1025.3
20210917070213 56 111 3.0 9.0 0.00 0.00 0.00 93 1025.3
20210917065716 56 123 4.0 9.0 0.00 0.00 0.00 93 1025.2
20210917065214 56 100 4.0 9.0 0.00 0.00 0.00 93 1025.2
20210917064715 56 82 3.0 9.0 0.00 0.00 0.00 93 1025.3
20210917064213 56 113 3.0 9.0 0.00 0.00 0.00 93 1025.4
20210917063715 56 127 3.0 9.0 0.00 0.00 0.00 93 1025.4
20210917063214 56 125 3.0 9.0 0.00 0.00 0.00 93 1025.5
20210917062715 55 120 2.0 9.0 0.00 0.00 0.00 93 1025.5
20210917062215 56 126 2.0 9.0 0.00 0.00 0.00 93 1025.6
20210917061714 56 126 3.0 9.0 0.00 0.00 0.00 93 1025.6
20210917061214 55 118 3.0 9.0 0.00 0.00 0.00 93 1025.6
20210917060708 55 117 3.0 9.0 0.00 0.00 0.00 93 1025.7
20210917060214 55 124 2.0 9.0 0.00 0.00 0.00 93 1025.7
20210917055716 55 125 2.0 9.0 0.00 0.00 0.00 93 1025.7
20210917055208 55 127 2.0 9.0 0.00 0.00 0.00 93 1025.8
20210917054716 55 120 2.0 9.0 0.00 0.00 0.00 93 1025.8
20210917054215 56 126 2.0 9.0 0.00 0.00 0.00 93 1025.8
20210917053715 56 127 2.0 9.0 0.00 0.00 0.00 92 1025.9
20210917053217 56 130 1.0 9.0 0.00 0.00 0.00 93 1025.8
20210917052712 56 144 1.0 9.0 0.00 0.00 0.00 93 1025.9
20210917052215 56 144 0.0 9.0 0.00 0.00 0.00 92 1025.8
20210917051712 56 144 0.0 9.0 0.00 0.00 0.00 92 1025.9
20210917051213 56 144 1.0 9.0 0.00 0.00 0.00 92 1026.0
20210917050715 56 144 1.0 9.0 0.00 0.00 0.00 92 1026.0
20210917050215 56 143 0.0 9.0 0.00 0.00 0.00 92 1025.9
20210917045712 56 144 0.0 9.0 0.00 0.00 0.00 92 1026.0
20210917045215 56 144 1.0 9.0 0.00 0.00 0.00 92 1025.9
20210917044716 56 145 0.0 9.0 0.00 0.00 0.00 92 1025.9
20210917044215 56 145 0.0 9.0 0.00 0.00 0.00 92 1026.0
20210917043714 56 145 0.0 9.0 0.00 0.00 0.00 92 1026.0
20210917043215 56 145 0.0 9.0 0.00 0.00 0.00 92 1025.9
20210917042715 56 145 1.0 9.0 0.00 0.00 0.00 92 1026.0
20210917042213 56 145 1.0 9.0 0.00 0.00 0.00 92 1026.0
20210917041714 56 145 2.0 9.0 0.00 0.00 0.00 92 1025.9
20210917041216 56 147 1.0 9.0 0.00 0.00 0.00 92 1025.9
20210917040722 56 169 1.0 9.0 0.00 0.00 0.00 92 1025.9
20210917040213 56 172 1.0 9.0 0.00 0.00 0.00 91 1025.9
20210917035715 56 175 0.0 9.0 0.00 0.00 0.00 92 1026.1
20210917035207 56 180 0.0 9.0 0.00 0.00 0.00 91 1026.1
20210917034712 56 182 0.0 9.0 0.00 0.00 0.00 91 1026.0
20210917034207 56 182 0.0 9.0 0.00 0.00 0.00 91 1026.1
20210917033715 56 182 0.0 9.0 0.00 0.00 0.00 91 1026.1
20210917033214 56 182 0.0 9.0 0.00 0.00 0.00 91 1026.1
20210917032712 56 182 0.0 9.0 0.00 0.00 0.00 91 1026.0
20210917032215 56 182 0.0 9.0 0.00 0.00 0.00 91 1026.1
20210917031718 57 182 0.0 9.0 0.00 0.00 0.00 91 1026.1
20210917031214 56 182 0.0 9.0 0.00 0.00 0.00 91 1026.2
20210917030715 56 182 0.0 9.0 0.00 0.00 0.00 91 1026.1
20210917030213 57 182 0.0 9.0 0.00 0.00 0.00 91 1026.1
20210917025712 57 182 0.0 9.0 0.00 0.00 0.00 90 1026.2
20210917025214 57 182 0.0 9.0 0.00 0.00 0.00 91 1026.3
20210917024715 58 182 0.0 9.0 0.00 0.00 0.00 91 1026.3
20210917024215 57 182 0.0 9.0 0.00 0.00 0.00 91 1026.3
20210917023715 57 182 0.0 9.0 0.00 0.00 0.00 90 1026.3
20210917023214 57 182 0.0 9.0 0.00 0.00 0.00 90 1026.2
20210917022706 57 163 0.0 9.0 0.00 0.00 0.00 90 1026.2
20210917022216 57 162 0.0 9.0 0.00 0.00 0.00 90 1026.2
20210917021714 57 162 0.0 9.0 0.00 0.00 0.00 90 1026.2
20210917021215 57 162 0.0 9.0 0.00 0.00 0.00 90 1026.2
20210917020715 57 162 0.0 9.0 0.00 0.00 0.00 90 1026.1
20210917020214 57 159 0.0 9.0 0.00 0.00 0.00 90 1026.1
20210917015712 57 159 0.0 9.0 0.00 0.00 0.00 90 1026.0
20210917015212 57 159 0.0 9.0 0.00 0.00 0.00 90 1026.0
20210917014716 57 159 0.0 9.0 0.00 0.00 0.00 89 1025.9
20210917014215 57 159 0.0 9.0 0.00 0.00 0.00 89 1025.9
20210917013715 57 159 0.0 9.0 0.00 0.00 0.00 89 1025.9
20210917013213 57 159 0.0 9.0 0.00 0.00 0.00 89 1025.8
20210917012716 57 159 0.0 9.0 0.00 0.00 0.00 88 1025.8
20210917012215 58 159 0.0 9.0 0.00 0.00 0.00 88 1025.8
20210917011715 58 159 0.0 9.0 0.00 0.00 0.00 88 1025.9
20210917011214 58 159 0.0 9.0 0.00 0.00 0.00 88 1025.9
20210917010716 58 159 0.0 9.0 0.00 0.00 0.00 88 1026.0
20210917010215 58 159 0.0 9.0 0.00 0.00 0.00 87 1026.0
20210917005715 58 159 0.0 9.0 0.00 0.00 0.00 88 1025.9
20210917005210 58 159 0.0 9.0 0.00 0.00 0.00 87 1025.9
20210917004714 59 159 0.0 9.0 0.00 0.00 0.00 87 1025.8
20210917004215 59 159 1.0 9.0 0.00 0.00 0.00 86 1025.9
20210917003715 59 159 1.0 9.0 0.00 0.00 0.00 86 1025.8
20210917003214 59 157 0.0 9.0 0.00 0.00 0.00 86 1025.8
20210917002715 59 159 1.0 9.0 0.00 0.00 0.00 85 1025.8
20210917002215 59 159 1.0 9.0 0.00 0.00 0.00 85 1025.6
20210917001716 60 159 1.0 9.0 0.00 0.00 0.00 84 1025.5
20210917001213 60 161 0.0 9.0 0.00 0.00 0.00 85 1025.5
20210917000713 60 161 0.0 9.0 0.00 0.00 0.00 85 1025.5
20210917000215 60 161 0.0 9.0 0.00 0.00 0.00 84 1025.4
20210916235713 60 161 0.0 9.0 0.00 0.00 0.00 85 1025.2
20210916235210 60 163 0.0 9.0 0.00 0.00 0.00 84 1025.1
20210916234715 60 163 0.0 9.0 0.00 0.00 0.00 84 1025.0
20210916234212 60 164 0.0 9.0 0.00 0.00 0.00 84 1025.0
20210916233713 60 164 0.0 9.0 0.00 0.00 0.00 84 1024.9
20210916233215 61 164 1.0 9.0 0.00 0.00 0.00 83 1024.8
20210916232712 61 165 1.0 9.0 0.00 0.00 0.00 83 1024.8
20210916232215 61 165 1.0 9.0 0.00 0.00 0.00 83 1024.7
20210916231716 61 204 0.0 9.0 0.00 0.00 0.00 83 1024.7
20210916231213 61 205 0.0 9.0 0.00 0.00 0.00 83 1024.8
20210916230713 61 204 0.0 9.0 0.00 0.00 0.00 82 1024.7
20210916230215 62 204 0.0 9.0 0.00 0.00 0.00 82 1024.6
20210916225716 62 204 0.0 9.0 0.00 0.00 0.00 81 1024.6
20210916225214 62 204 0.0 9.0 0.00 0.00 0.00 81 1024.6
20210916224713 63 204 0.0 9.0 0.00 0.00 0.00 80 1024.5
20210916224215 63 204 0.0 9.0 0.00 0.00 0.00 79 1024.4
20210916223715 64 205 0.0 9.0 0.00 0.00 0.00 78 1024.4
20210916223213 64 189 0.0 9.0 0.00 0.00 0.00 78 1024.4
20210916222713 65 188 0.0 9.0 0.00 0.00 0.00 77 1024.4
20210916222215 66 188 0.0 9.0 0.00 0.00 0.00 75 1024.3
20210916221715 66 219 1.0 9.0 0.00 0.00 0.00 75 1024.3
20210916221213 66 206 1.0 9.0 0.00 0.00 0.00 75 1024.2
20210916220715 66 218 1.0 9.0 0.00 0.00 0.00 75 1024.1
20210916220214 67 284 2.0 9.0 0.00 0.00 0.00 75 1024.0
20210916215712 67 288 3.0 9.0 0.00 0.00 0.00 75 1024.0
20210916215212 67 260 3.0 9.0 0.00 0.00 0.00 76 1024.0
20210916214715 67 244 2.0 9.0 0.00 0.00 0.00 76 1023.8
20210916214215 67 257 2.0 9.0 0.00 0.00 0.00 76 1023.8
20210916213714 67 263 3.0 9.0 0.00 0.00 0.00 76 1023.8
20210916213215 67 256 2.0 9.0 0.00 0.00 0.00 76 1023.8